カタログに戻る

FENGYUN 2E AKM

運用中GEO
NORAD 33465·ROCKET BODY·🇨🇳 China

打ち上げ Dec 23, 2008 から Xichang Satellite Launch Center

Loading…

TLE

最新Source: Space-Track

元期: Sep 13, 2026, 19:52 UTC

1 33465U 08066C   26256.82823197 -.00000182  00000-0  00000-0 0  9994
2 33465  10.0138  43.3776 0032629 325.7846  34.0738  1.02096742 48449

AllMySatでFENGYUN 2E AKMをリアルタイム追跡

Download on the App Store